Saint Simons Island, GA

3:48 AM EDT on June 29, 2017 (GMT -0400)
McKinnon

Weather History for KSSI - December, 2011

Change the Weather History Date:

Friday, December 2, 2011

  Actual Average Record
Temperature  
Mean Temperature 53 °F 57 °F  
Max Temperature 64 °F 66 °F 79 °F (1968)
Min Temperature 42 °F 49 °F 31 °F (1972)
Degree Days  
Heating Degree Days 12 9  
Month to date heating degree days 26 17  
Since 1 July heating degree days 172 197  
Cooling Degree Days 0 1  
Month to date cooling degree days 0 2  
Year to date cooling degree days 3025 2617  
Growing Degree Days 3 (Base 50)    
Moisture  
Dew Point 42 °F    
Average Humidity 67    
Maximum Humidity 92    
Minimum Humidity 42    
Precipitation  
Precipitation 0.00 in 0.08 in 0.78 in (1981)
Month to date precipitation 0.00 0.16  
Year to date precipitation 27.93 42.52  
Snow  
Snow 0.00 in - 0.00 in ()
Month to date snowfall 0.0  
Since 1 July snowfall 0.0  
Snow Depth 0.00 in    
Sea Level Pressure  
Sea Level Pressure 30.40 in    
Wind  
Wind Speed 5 mph (NNE)    
Max Wind Speed 12 mph    
Max Gust Speed 15 mph    
Visibility 10 miles    
Events      
T = Trace of Precipitation, MM = Missing Value Source: NWS Daily Summary

Daily Weather History Graph

Daily Weather History Graph

Search for Another Location

Airport or City:

Trip Planner

Search our weather history database for the weather conditions in past years. The results will help you decide how hot, cold, wet, or windy it might be!

Date:

Astronomy

Dec. 02, 2011 Rise Set
Actual Time 7:06 AM EST 5:22 PM EST
Civil Twilight 6:40 AM EST 5:49 PM EST
Nautical Twilight 6:10 AM EST 6:19 PM EST
Astronomical Twilight 5:41 AM EST 6:48 PM EST
Moon 12:37 PM EST (12/2) 12:01 AM EST (12/2)
Length of Visible Light 11h 08m
Length of Day
10h 15m
First Quarter, 53% of the Moon is Illuminated
Dec 2
First Quarter
Dec 10
Full
Dec 17
Last Quarter
Dec 24
New
Jan 1
First Quarter

Hourly Weather History & Observations

Time (EST) Temp. Windchill Dew Point Humidity Pressure Visibility Wind Dir Wind Speed Gust Speed Precip Events Conditions
12:53 AM 46.0 °F 43.9 °F 43.0 °F 89% 30.34 in 10.0 mi North 4.6 mph - N/A   Clear
1:53 AM 46.0 °F 43.9 °F 43.0 °F 89% 30.35 in 10.0 mi North 4.6 mph - N/A   Clear
2:53 AM 45.0 °F - 42.1 °F 90% 30.34 in 10.0 mi Calm Calm - N/A   Clear
3:53 AM 44.1 °F - 41.0 °F 89% 30.33 in 10.0 mi Calm Calm - N/A   Clear
4:53 AM 44.1 °F 41.5 °F 41.0 °F 89% 30.35 in 10.0 mi North 4.6 mph - N/A   Clear
5:53 AM 44.6 °F 40.7 °F 41.0 °F 87% 30.36 in 10.0 mi North 6.9 mph - N/A   Clear
6:53 AM 43.0 °F 39.5 °F 39.9 °F 89% 30.38 in 10.0 mi NNW 5.8 mph - N/A   Clear
7:53 AM 45.0 °F 40.6 °F 41.0 °F 86% 30.41 in 10.0 mi NNW 8.1 mph - N/A   Clear
8:53 AM 50.0 °F - 42.1 °F 74% 30.43 in 10.0 mi North 6.9 mph - N/A   Clear
9:53 AM 57.0 °F - 44.1 °F 62% 30.44 in 10.0 mi NNW 6.9 mph - N/A   Clear
10:53 AM 61.0 °F - 45.0 °F 56% 30.43 in 10.0 mi NNE 5.8 mph - N/A   Clear
11:53 AM 63.0 °F - 44.1 °F 50% 30.42 in 10.0 mi NE 10.4 mph - N/A   Clear
12:53 PM 63.0 °F - 39.9 °F 43% 30.41 in 10.0 mi NE 9.2 mph - N/A   Clear
1:53 PM 63.0 °F - 43.0 °F 48% 30.40 in 10.0 mi East 11.5 mph - N/A   Clear
2:53 PM 62.1 °F - 44.1 °F 52% 30.39 in 10.0 mi East 8.1 mph - N/A   Clear
3:53 PM 61.0 °F - 37.9 °F 42% 30.38 in 10.0 mi ENE 8.1 mph - N/A   Clear
4:53 PM 57.9 °F - 41.0 °F 53% 30.39 in 10.0 mi NE 5.8 mph - N/A   Clear
5:53 PM 53.1 °F - 41.0 °F 64% 30.40 in 10.0 mi Calm Calm - N/A   Clear
6:53 PM 50.0 °F - 42.1 °F 74% 30.41 in 10.0 mi Calm Calm - N/A   Clear
7:53 PM 48.9 °F - 42.1 °F 77% 30.42 in 10.0 mi Calm Calm - N/A   Clear
8:53 PM 46.9 °F - 43.0 °F 86% 30.43 in 10.0 mi Calm Calm - N/A   Clear
9:53 PM 45.0 °F - 41.0 °F 86% 30.44 in 10.0 mi Calm Calm - N/A   Clear
10:53 PM 44.1 °F - 41.0 °F 89% 30.43 in 10.0 mi Calm Calm - N/A   Clear
11:53 PM 43.0 °F 40.3 °F 41.0 °F 93% 30.43 in 10.0 mi North 4.6 mph - N/A   Clear